Regional Weather Roundup
Issued by NWS

Home | Current Version | Previous Version | Graphics & Text | Print | Product List | Glossary On
Versions: 1 2 3 4 5 6 7 8 9 10 11 12 13 14 15 16 17 18 19 20 21 22 23 24 25 26 27 28 29 30 31 32 33 34 35 36 37 38 39 40 41 42 43 44 45 46 47 48 49 50
000
ASUS43 KLOT 011208
RWRIL

ILLINOIS REGIONAL WEATHER ROUNDUP
NATIONAL WEATHER SERVICE CHICAGO/ROMEOVILLE IL
700 AM CDT TUE SEP 01 2015

NOTE: "FAIR" INDICATES FEW OR NO CLOUDS BELOW 12,000 FEET WITH NO
SIGNIFICANT WEATHER AND/OR OBSTRUCTIONS TO VISIBILITY.

* THESE STATIONS ARE NOT UNDER NWS QUALITY CONTROL. THEY ALSO MAY NOT
  REPORT WEATHER SUCH AS PRECIPITATION OR FOG.

ILZ001-002-007-009-015-016-024-011300-
NORTHWEST ILLINOIS

CITY           SKY/WX    TMP DP  RH WIND       PRES   REMARKS
MOLINE         CLEAR     71  68  90 CALM      30.03R FOG
6HR MIN TEMP:  71; 6HR MAX TEMP:  76;

STERLING*      PTCLDY   N/A N/A N/A CALM      30.01S
SAVANNA*       CLEAR     70  68  93 S3        30.02S FOG
$$

ILZ003-004-008-010-011-017-018-011300-
NORTH CENTRAL ILLINOIS

CITY           SKY/WX    TMP DP  RH WIND       PRES   REMARKS
ROCKFORD       CLEAR     69  67  93 S6        30.05R FOG
6HR MIN TEMP:  69; 6HR MAX TEMP:  71;

FREEPORT*      MOCLDY    70  69  96 SW6       30.05R FOG
ROCHELLE*        N/A     66  66 100 CALM      30.05R FOG
DE KALB*       FOG       67  67  99 S3        30.06R VSB 1/2
PERU*          CLEAR     70  69  95 SW5       30.05S FOG
$$

ILZ005-006-012>014-019>023-011300-
NORTHEAST ILLINOIS

CITY           SKY/WX    TMP DP  RH WIND       PRES   REMARKS
CHICAGO-OHARE  PTCLDY    72  70  93 S5        30.05R FOG
6HR MIN TEMP:  68; 6HR MAX TEMP:  72;

CHICAGO-MIDWAY PTCLDY    74  69  85 S7        30.05R
6HR MIN TEMP:  74; 6HR MAX TEMP:  77;

AURORA         FOG       69  68  96 SE3       30.06R VSB 1
6HR MIN TEMP:  68; 6HR MAX TEMP:  72;

LANSING*       CLEAR     68  67  97 CALM      30.08R FOG
JOLIET*        PTCLDY    71  70  99 CALM      30.06S FOG
WAUKEGAN       CLEAR     69  68  96 SW6       30.04R FOG
6HR MIN TEMP:  64; 6HR MAX TEMP:  70;

DUPAGE AIRPORT PTCLDY    70  68  93 S3        30.05R FOG
6HR MIN TEMP:  68; 6HR MAX TEMP:  71;

KANKAKEE*      PTCLDY    70  69  95 S6        30.08R
WHEELING       PTCLDY    69  67  93 S3        30.06R FOG
6HR MIN TEMP:  67; 6HR MAX TEMP:  70;

MORRIS*          N/A     69  68  97 SE3       30.05R FOG
ROMEOVILLE*    CLEAR     69  69  99 S6        30.06R FOG
NORTHERLY ISL    N/A     73  68  84 S5          N/A
$$

LMZ740>746-011300-
SOUTHERN LAKE MICHIGAN

STATION/POSITION SKY/WX   TEMP    WIND        PRES    VSBY  WAVE
                          AIR SEA DIR/SP/G                  HT/PER
                          (F)     (DEG/KT/KT) (MB)    (MI)  (FT/S)
SOUTHERN BUOY              71 69  180/  8/ 10 1017.0R         0
WILMETTE HARBOR            66 60  320/  4/  6   N/A           0
HARRISON CRIB              72     170/  9/ 11   N/A
BURNHAM HARBOR             73     230/  2/  6   N/A
CALUMET HARBOR             71     190/  4/  5   N/A
BURNS HARBOR               72     180/  8/ 11 1018.3S
MICHIGAN CITY              73     150/  9/ 12   N/A
MICHIGAN CITY 6N           72 72  180/  8/ 10   N/A           1
ST. JOSEPH                 72 71  210/  8/ 10   N/A           1
$$

ILZ025>027-034>036-040-047-049-050-058-095>099-011300-
WEST-CENTRAL ILLINOIS

CITY           SKY/WX    TMP DP  RH WIND       PRES   REMARKS
QUINCY         CLEAR     72  69  90 S7        30.06R FOG
GALESBURG*     CLEAR     70  69  96 S6        30.06R FOG
MACOMB*        CLEAR     72  70  95 SW5       30.08R FOG
JACKSONVILLE*  CLEAR     74  71  89 S7        30.08R
PITTSFIELD*    CLEAR     73  69  89 S5        30.09R
$$

ILZ028>032-037-038-041>044-048-051>054-059>061-011300-
CENTRAL ILLINOIS

CITY           SKY/WX    TMP DP  RH WIND       PRES   REMARKS
PONTIAC        PTCLDY    69  69 100 SE5       30.08R FOG
BLOOMINGTON    CLEAR     71  71 100 S7        30.10R FOG
DECATUR        CLEAR     72  68  87 VRB7      30.09R
PEORIA         CLEAR     73  69  87 S5        30.06R FOG
6HR MIN TEMP:  73; 6HR MAX TEMP:  77;

LACON*         PTCLDY    72  70  94 SW3       30.04R FOG
LINCOLN*       PTCLDY    71  69  93 CALM      30.07S FOG
SPRINGFIELD    CLEAR     73  70  90 SW6       30.08R
6HR MIN TEMP:  73; 6HR MAX TEMP:  77;

TAYLORVILLE    CLEAR     68  68 100 S5        30.09R FOG
$$

ILZ033-039-045-046-055>057-062-063-011300-
EAST-CENTRAL ILLINOIS

CITY           SKY/WX    TMP DP  RH WIND       PRES   REMARKS
CHAMPAIGN      TSTM      73  70  90 NE7       30.11R FOG
RANTOUL*       MOCLDY    74  72  91 SW5       30.08F
MATTOON        MOCLDY    71  68  90 SE8       30.11R
PARIS*         PTCLDY    70  68  94 S6        30.12S THUNDER
$$

ILZ079-100>102-011300-
SOUTHWEST ILLINOIS

CITY           SKY/WX    TMP DP  RH WIND       PRES   REMARKS
ALTON          PTCLDY    68  68 100 S3        30.10R
BELLEVILLE     CLEAR     69  69 100 E1        30.09R
CAHOKIA*       CLEAR     70  68  93 CALM      30.10R
SPARTA*        CLEAR     71  68  90 S3        30.12R
$$

ILZ064>066-069>071-074>076-080>082-084>086-088>090-092>094-011300-
SOUTH-CENTRAL ILLINOIS

CITY           SKY/WX    TMP DP  RH WIND       PRES   REMARKS
CARBONDALE     PTCLDY    66  65  96 CALM      30.12R FOG
6HR MIN TEMP:  66; 6HR MAX TEMP:  71;

CAIRO*         FOG       64  64 100 CALM      30.12R VSB 1/2
EFFINGHAM*     MOCLDY    71  67  87 S3        30.12S
MARION         CLEAR     72  68  88 SE6       30.13R
MT. VERNON     PTCLDY    68  63  83 CALM      30.13R
SALEM*         CLEAR     71  68  90 S5        30.11S
METROPOLIS*    CLEAR     64  64 100 CALM      30.13S FOG
$$

ILZ067-068-072-073-078-083-087-091-011300-
SOUTHEAST ILLINOIS

CITY           SKY/WX    TMP DP  RH WIND       PRES   REMARKS
LAWRENCEVILLE  CLOUDY    69  67  93 CALM      30.13R FOG
FLORA*         PTCLDY    68  66  94 CALM      30.12R
FAIRFIELD*     CLEAR     69  67  96 CALM      30.11S
HARRISBURG*    CLEAR     65  65  99 CALM      30.13R FOG
ROBINSON*      MOCLDY    70  68  93 CALM      30.14S
CARMI*         CLEAR     65  64  99 S3        30.12S FOG
$$

ABBREVIATIONS USED IN REMARKS
   TC - TEMPERATURE IN CELSIUS
  WCI - WIND CHILL INDEX
   HX - HEAT INDEX
  VSB - VISIBILITY
$$




USA.gov is the U.S. government's official web portal to all federal, state and local government web resources and services.